Location: Drocourt
(49.0571°N, 1.7669°E)
Time: 16:16:56
(UTC+00:00)

Cosmos 2219 Rocket - Visible Passes

Search period start: 30 September 2023 00:00
Search period end: 10 October 2023 00:00
Orbit: 828 x 846 km, 71.0° (Epoch: 30 September)

Date Brightness Start Highest point End Pass type
(mag) Time Alt. Az. Time Alt. Az. Time Alt. Az.
30 Sep 5.2 00:31:19 10° N 00:32:30 11° NNE 00:33:42 10° NE visible
30 Sep 3.8 02:13:18 10° NNW 02:18:22 32° NE 02:23:25 10° ESE visible
30 Sep 2.2 03:57:05 10° NW 04:02:35 53° WSW 04:08:04 10° S visible
30 Sep 2.8 18:51:19 10° SW 18:56:49 58° WNW 19:02:23 10° NNE visible
30 Sep 4.9 20:38:43 10° WNW 20:42:03 16° NNW 20:45:24 10° N visible
01 Oct 5.2 00:15:09 10° NNE 00:15:51 10° NNE 00:16:34 10° NNE visible
01 Oct 3.8 01:56:48 10° NNW 02:01:48 31° NE 02:06:46 10° ESE visible
01 Oct 2.2 03:40:32 10° NW 03:46:04 57° WSW 03:51:36 10° S visible
01 Oct 2.7 18:34:45 10° SW 18:40:17 62° WNW 18:45:53 10° NNE visible
01 Oct 4.9 20:21:56 10° WNW 20:25:26 16° NW 20:28:56 10° N visible
02 Oct 3.9 01:40:18 10° NNW 01:45:13 29° NE 01:50:07 10° ESE visible
02 Oct 2.1 03:23:59 10° NW 03:29:34 61° WSW 03:35:08 10° SSE visible
02 Oct 2.6 18:18:10 10° SW 18:23:44 66° WNW 18:29:21 10° NNE visible
02 Oct 4.8 20:05:11 10° WNW 20:08:49 17° NW 20:12:29 10° N visible
03 Oct 4.2 01:23:48 10° NNW 01:26:55 24° NNE 01:26:55 24° NNE visible
03 Oct 4.2 03:07:26 10° NNW 03:19:06 - SSE 03:08:26 16° NW visible
03 Oct4.805:01:05SW05:01:05SW04:50:00NWvisible
03 Oct 2.6 18:01:37 10° SW 18:07:12 71° WNW 18:12:50 10° NNE visible
03 Oct 4.8 19:48:25 10° W 19:52:12 18° NW 19:56:01 10° N visible
04 Oct 4.6 01:07:20 10° NNW 01:09:04 17° N 01:09:04 17° N visible
04 Oct 4.7 19:31:41 10° W 19:35:36 19° NW 19:39:32 10° N visible
05 Oct 4.8 00:50:50 10° NNW 00:51:52 14° N 00:51:52 14° N visible
05 Oct 4.6 19:14:57 10° W 19:18:59 20° NW 19:23:04 10° N visible
06 Oct 4.9 00:34:20 10° N 00:34:57 12° N 00:34:57 12° N visible
06 Oct 4.6 18:58:14 10° W 19:02:24 21° NW 19:06:35 10° N visible
07 Oct 5.0 00:17:51 10° N 00:18:11 11° N 00:18:11 11° N visible
07 Oct 4.5 18:41:30 10° W 18:45:48 22° NW 18:50:06 10° N visible
08 Oct 5.1 00:01:22 10° N 00:01:32 11° N 00:01:32 11° N visible
08 Oct 4.4 18:24:48 10° W 18:29:12 23° NW 18:33:38 10° N visible
08 Oct 5.1 23:44:53 10° N 23:44:57 10° N 23:44:57 10° N visible
09 Oct 4.3 18:08:06 10° W 18:12:36 24° NW 18:17:08 10° N visible
09 Oct 5.2 23:28:25 10° N 23:28:25 10° N 23:28:25 10° N visible
